GFSMW_925_thetae_087.txt.gz
Theta_e
321 320 319 319 322 326 332 336 340 338 339 337 333 332 331 331 331 329 329 330 330 329 328 328 327 328 328 328 328 327 325 326 325 325 323 323 322 323 322 321 320 321 320
321 321 320 320 323 329 333 336 339 338 338 334 333 332 331 330 331 331 329 328 329 328 328 328 329 328 327 327 327 326 325 324 325 324 323 324 322 323 322 322 321 321 320
321 321 321 320 324 329 333 336 338 338 337 334 333 331 330 329 329 329 328 331 330 329 327 327 327 327 327 326 326 326 325 325 324 324 324 324 324 323 323 323 322 322 321
320 321 322 321 323 329 332 335 337 337 336 334 333 331 330 329 328 328 329 330 329 329 328 327 327 326 325 325 325 325 325 324 325 324 323 321 321 325 326 323 323 322 321
321 321 321 321 320 326 330 335 336 335 336 334 332 331 329 328 327 328 328 328 327 325 325 325 326 325 325 325 325 324 325 324 325 324 324 323 322 323 324 325 324 323 322
326 324 323 322 320 324 331 336 335 335 333 333 332 331 329 327 327 328 328 327 325 323 322 323 325 325 324 323 324 323 321 324 324 324 324 324 324 324 323 325 324 324 322
327 330 328 325 323 326 332 336 334 335 332 333 332 330 328 327 326 328 327 325 323 322 321 322 323 323 323 322 323 323 323 324 324 324 324 324 324 323 323 323 323 323 322
324 326 331 328 326 326 332 334 331 331 330 332 332 330 327 326 326 328 326 326 324 321 321 320 320 321 322 322 322 323 324 324 324 324 324 324 323 323 323 323 321 322 320
322 322 325 328 328 330 331 329 329 329 330 333 331 328 327 326 325 327 327 325 325 323 322 320 319 320 320 321 321 322 322 322 323 323 322 322 323 323 322 321 321 320 322
319 316 320 325 329 331 328 327 328 328 329 332 329 326 326 325 325 326 326 326 326 324 323 321 320 319 319 320 320 320 320 320 321 321 322 322 322 321 321 322 322 321 319
315 310 311 313 329 328 326 326 327 327 328 329 326 325 325 325 325 325 325 325 325 325 325 322 320 319 319 319 318 317 316 315 315 316 319 320 319 321 321 321 322 322 321
311 306 306 307 323 327 327 327 327 326 326 326 324 324 324 325 324 323 324 324 324 323 322 324 321 320 319 317 316 316 315 315 316 317 318 319 319 319 319 320 320 319 319
307 304 303 303 305 313 325 325 324 324 324 325 323 324 323 323 322 322 323 324 323 323 324 323 321 320 319 318 317 316 316 315 315 316 317 318 318 318 318 318 318 318 318
304 301 299 299 299 302 306 309 323 324 323 322 322 322 322 322 322 321 323 323 322 322 321 322 322 321 320 319 318 317 315 314 313 313 314 316 315 316 316 317 317 317 317
302 298 297 297 296 297 299 301 304 312 317 315 314 313 318 320 320 319 319 320 320 320 321 321 320 320 319 318 318 318 317 317 317 317 317 317 317 316 317 317 317 318 319
299 296 295 294 294 294 295 297 298 301 304 305 304 305 306 309 310 313 312 313 314 314 314 314 312 308 308 311 317 319 318 319 318 318 317 316 314 316 319 319 318 316 314
296 295 293 292 292 292 293 293 294 296 297 298 299 300 300 300 299 300 303 303 303 305 303 300 300 300 302 305 309 315 313 311 310 309 309 309 309 308 307 305 306 303 300
295 295 293 291 291 290 291 291 292 292 293 294 295 295 295 294 294 294 293 293 295 294 294 293 294 295 295 299 303 306 305 301 297 297 297 298 300 302 301 300 297 294 293
291 291 290 290 290 290 290 290 290 290 291 291 292 293 292 291 291 290 289 289 289 288 288 289 289 289 290 291 294 297 294 291 288 288 289 291 293 296 297 296 292 288 287
290 289 288 289 289 289 289 289 289 289 289 289 290 291 291 291 290 290 289 288 288 287 287 286 286 286 287 288 289 290 289 286 285 284 284 284 286 288 289 289 287 284 284
289 289 289 288 287 288 288 289 288 288 288 289 289 289 290 290 291 291 290 290 289 289 288 287 286 284 285 286 288 288 287 286 285 283 282 282 283 283 284 284 285 284 285
290 289 289 288 288 287 287 288 288 288 287 287 288 288 289 290 290 291 291 290 290 290 288 287 286 284 283 282 283 285 285 285 284 283 282 281 281 281 282 283 283 284 284
288 288 288 287 287 287 287 287 286 287 287 287 287 287 286 286 288 289 289 290 289 289 288 287 286 285 285 284 283 282 281 281 281 281 281 281 281 282 281 280 281 282 282
288 287 286 286 285 286 287 286 287 287 286 285 284 283 284 284 284 283 283 283 286 286 287 286 285 284 282 282 283 283 283 283 283 282 282 282 282 281 280 280 280 280 280
286 286 285 285 284 284 284 285 287 287 286 286 285 284 282 281 279 279 280 280 279 281 283 281 282 282 280 278 279 280 281 282 282 283 282 282 282 282 281 279 278 277 278
285 284 284 283 283 283 282 282 284 285 285 285 285 284 284 283 281 279 277 277 278 278 278 278 279 278 277 277 277 278 278 280 282 282 281 281 280 279 278 278 277 276 275

GFSMW_925_thetae_090.txt.gz
Theta_e
319 320 321 321 321 319 321 344 343 342 341 341 339 337 334 332 332 331 331 330 332 332 331 331 331 329 329 329 328 328 327 326 327 326 324 323 321 320 320 322 321 321 321
319 320 321 321 321 321 324 343 343 341 341 341 337 335 334 332 331 328 329 329 332 331 330 330 329 328 328 329 328 327 325 326 325 325 323 323 323 322 322 322 320 322 320
319 320 322 322 322 325 331 341 343 340 340 340 336 334 332 332 331 330 329 328 330 331 330 329 329 328 328 328 328 327 325 325 325 324 322 323 323 323 321 321 321 322 322
320 319 321 323 322 327 331 338 342 339 340 337 336 334 332 331 330 330 329 329 330 329 329 328 328 327 328 328 328 327 325 324 325 324 323 322 322 322 324 322 322 321 321
324 320 320 323 322 327 332 335 340 339 338 336 336 334 332 330 329 330 330 330 330 329 329 328 328 327 327 327 327 327 326 324 324 324 324 321 323 321 323 322 323 322 323
327 328 328 324 321 326 333 335 339 338 338 335 336 333 332 330 329 329 328 328 327 325 324 326 327 328 326 326 326 326 326 324 324 324 323 322 322 323 323 321 323 322 322
326 326 327 330 327 325 333 336 338 338 338 336 335 333 332 329 329 329 328 327 324 322 324 323 322 324 325 325 325 325 326 324 324 323 323 323 321 323 323 323 323 323 323
324 324 325 326 324 329 336 337 337 336 336 335 334 333 331 329 329 329 327 326 325 323 322 321 322 323 324 324 324 324 325 323 322 323 323 323 324 324 322 323 322 321 321
321 320 320 320 320 331 336 337 336 335 334 334 333 332 330 328 327 329 327 325 324 323 322 320 321 321 322 323 323 323 322 322 321 324 323 323 324 323 323 323 322 320 319
318 314 315 314 323 332 332 332 332 332 331 333 334 331 328 327 327 327 325 326 325 324 321 321 320 320 321 322 322 323 323 322 322 324 323 323 322 322 322 322 321 320 321
314 310 309 307 309 320 329 329 329 329 330 331 332 328 328 326 325 327 327 326 326 325 323 322 320 319 320 320 321 322 322 323 322 323 322 321 322 321 321 320 320 321 321
310 306 304 303 304 305 310 327 328 328 329 330 327 327 325 324 325 326 326 326 326 325 324 322 321 319 319 319 320 321 321 320 319 317 314 318 319 320 319 319 321 321 321
307 303 301 300 300 300 302 306 327 327 326 325 325 324 325 324 324 325 324 324 324 323 322 323 322 320 319 319 319 319 319 317 316 316 315 316 317 317 318 319 320 320 320
303 301 298 297 297 297 298 300 306 324 325 324 324 324 323 323 322 323 324 324 323 323 324 322 322 321 319 318 317 317 317 316 315 315 315 317 318 318 317 318 317 317 317
300 298 296 295 295 295 295 296 298 306 315 316 315 316 321 321 320 322 321 321 321 321 321 320 318 317 317 317 318 317 316 315 315 315 315 315 316 317 317 316 316 317 317
297 295 294 294 293 293 293 294 295 298 303 305 305 309 311 311 309 311 313 315 314 314 314 313 310 309 309 312 317 316 317 317 316 316 315 314 315 315 315 315 315 313 313
294 293 293 292 291 291 291 292 293 294 296 297 298 301 301 301 301 301 303 301 302 304 301 300 303 303 303 306 309 311 311 309 305 304 303 303 303 302 302 300 301 301 300
292 292 291 291 290 290 290 290 291 292 292 293 294 294 295 294 294 294 293 293 293 294 293 293 293 294 294 299 303 306 303 299 296 296 296 296 298 298 298 297 296 292 291
290 290 289 289 289 289 289 290 290 290 290 290 290 291 291 291 290 290 289 289 289 289 288 288 289 289 289 292 294 297 294 291 288 288 290 292 293 292 294 293 289 287 286
290 289 288 288 289 289 289 289 288 289 289 289 289 290 290 290 289 289 288 288 287 286 286 286 286 287 288 288 289 290 288 286 285 285 285 286 287 287 288 288 287 285 285
290 289 288 288 288 288 289 288 288 288 288 289 289 290 290 290 290 290 289 289 288 286 285 284 284 284 286 287 288 287 286 284 283 282 282 283 284 284 285 286 285 285 285
290 289 288 288 287 287 287 287 288 288 288 287 287 286 287 288 290 290 290 289 288 287 287 286 284 283 283 284 284 285 284 283 283 282 282 282 282 283 284 284 284 284 284
289 288 287 288 287 287 288 287 286 285 285 284 284 284 284 285 285 285 286 288 288 287 286 285 284 283 283 283 283 282 282 282 282 282 282 282 282 281 281 281 281 282 282
288 287 286 285 285 285 287 286 286 285 284 283 282 281 281 281 281 281 282 282 284 284 285 284 282 280 281 283 283 283 283 283 283 283 282 282 282 280 279 278 278 278 279
286 286 285 284 283 283 283 285 286 286 286 285 284 282 280 279 279 279 279 279 279 281 280 279 279 279 278 279 280 282 282 283 283 282 282 281 281 279 279 277 276 276 276
284 284 283 283 282 282 282 283 284 285 285 284 285 284 283 280 279 277 277 277 278 278 278 278 277 277 278 278 279 280 281 282 282 281 280 279 278 278 277 276 276 274 274

GFSMW_925_thetae_093.txt.gz
Theta_e
311 313 315 318 317 318 317 331 342 342 341 340 340 337 335 335 334 334 332 332 332 333 333 332 331 331 330 330 329 327 326 326 326 326 326 324 321 323 323 322 321 320 320
313 313 314 317 319 318 318 335 342 342 341 340 339 337 336 334 332 333 331 331 332 333 332 331 331 330 329 329 329 328 327 326 326 325 323 322 321 321 322 322 321 321 321
313 314 315 316 319 319 321 340 342 341 340 340 337 336 334 332 331 330 329 329 329 331 331 331 331 330 329 329 328 328 327 326 326 325 322 322 322 321 321 322 321 321 321
323 317 314 316 318 320 329 340 341 340 339 340 337 336 332 331 330 329 328 328 328 329 330 330 329 329 329 328 328 328 326 325 325 325 323 322 322 321 321 321 322 322 322
323 323 324 325 322 322 340 341 340 339 339 338 336 335 332 331 331 329 329 327 328 329 329 330 329 329 328 327 328 327 325 324 324 324 324 323 321 321 320 320 321 322 321
322 322 323 323 324 325 338 340 339 339 338 336 336 333 332 330 330 330 329 329 329 329 329 329 328 327 326 326 328 327 326 324 324 324 323 322 321 321 320 319 320 320 322
321 320 319 319 320 320 325 339 338 338 337 336 336 333 333 331 329 328 329 330 330 328 327 326 327 328 327 326 326 327 326 324 324 324 323 322 322 321 321 321 321 321 321
317 315 315 314 314 323 329 335 337 337 335 335 335 334 332 330 329 329 328 328 326 325 324 323 324 325 325 326 326 326 326 325 324 324 323 323 321 322 322 322 322 321 321
313 311 310 310 309 313 330 335 336 335 335 334 335 333 332 330 328 328 328 326 325 324 322 323 320 321 322 324 325 325 325 325 324 323 323 323 322 323 322 323 322 321 320
309 307 306 305 305 308 315 331 332 332 334 334 334 332 331 328 329 328 327 326 324 323 321 320 320 320 321 322 323 324 324 325 324 323 323 322 322 322 322 322 321 321 319
306 304 302 301 301 303 307 314 329 328 331 332 333 332 328 327 328 327 326 325 324 323 323 320 318 320 320 321 322 323 323 322 322 322 322 322 322 322 322 321 320 320 320
302 300 299 299 299 299 301 304 314 329 329 331 331 328 327 326 326 325 325 326 326 324 323 321 320 320 320 320 321 322 322 322 322 322 322 322 322 320 320 320 320 319 318
300 298 297 297 297 297 298 300 303 315 328 328 327 326 325 324 324 325 327 326 326 325 324 322 321 320 320 320 320 321 321 320 321 321 321 321 320 318 317 320 319 318 319
298 296 295 295 295 295 295 297 299 307 323 325 324 324 324 324 324 324 324 324 324 323 324 323 321 320 319 319 319 319 320 320 319 318 318 317 315 315 316 316 316 316 319
296 295 294 294 293 293 294 295 296 300 307 313 318 317 322 321 322 323 323 322 323 321 321 321 319 318 318 318 318 318 317 317 316 316 316 316 316 317 317 317 317 317 318
294 293 293 292 292 292 293 293 294 296 298 300 302 306 315 317 315 314 313 316 314 313 314 312 312 312 313 316 317 317 316 316 315 314 314 312 315 316 316 316 316 316 316
292 292 291 291 291 290 291 292 292 293 293 294 295 296 298 302 305 304 303 304 303 303 302 302 304 304 304 308 314 316 313 311 309 307 305 304 303 305 306 304 303 303 305
291 290 290 290 289 289 290 291 291 291 291 291 291 292 292 292 294 296 294 293 295 294 294 293 293 295 295 300 305 308 304 300 298 298 298 298 296 297 298 298 296 293 294
289 289 289 289 289 289 289 289 289 290 290 290 290 290 290 290 289 289 289 289 289 288 288 289 289 289 289 293 294 299 294 291 290 291 293 294 292 292 293 293 289 286 285
289 289 288 288 288 288 288 289 288 288 288 288 289 289 290 289 288 288 287 286 286 285 286 286 287 287 287 288 288 288 288 286 286 286 287 288 288 288 289 289 287 285 285
289 288 288 287 287 287 288 287 287 287 287 288 288 288 288 289 288 288 287 286 285 285 284 284 284 285 285 286 286 286 285 284 284 284 284 285 286 286 286 286 286 285 284
288 288 287 287 287 286 286 286 285 285 285 285 285 286 286 286 287 288 287 287 286 285 284 284 283 283 283 283 284 283 283 283 282 282 282 283 284 284 284 284 284 284 283
287 286 286 285 285 287 286 285 284 284 284 284 283 283 284 284 285 285 285 284 285 284 283 282 282 282 283 283 282 282 282 282 282 282 282 281 280 281 281 281 282 282 281
286 285 284 284 283 284 285 286 285 284 283 281 281 281 281 281 281 281 282 282 281 281 281 280 280 281 282 283 283 283 283 283 282 282 281 279 278 278 278 278 278 278 278
284 283 283 283 283 283 284 285 285 285 285 283 281 280 279 278 279 279 279 279 279 279 278 278 279 279 280 281 282 283 283 282 281 281 279 278 277 276 275 275 275 275 275
283 283 282 282 281 282 282 283 284 284 284 284 284 281 280 278 277 276 277 278 278 279 278 278 278 278 279 280 281 282 282 281 280 278 277 276 276 275 274 274 273 273 273

GFSMW_925_thetae_096.txt.gz
Theta_e
309 309 311 313 313 315 314 330 338 342 342 339 338 338 338 338 337 336 334 336 336 334 334 334 333 332 332 330 330 329 327 327 327 327 327 326 326 325 325 325 323 323 322
310 310 310 312 313 314 315 324 337 341 341 340 339 337 336 336 335 334 335 333 334 332 333 332 332 332 331 330 329 328 326 326 326 326 323 323 320 322 323 323 323 323 322
312 312 311 310 313 314 316 324 336 340 340 340 339 337 334 334 335 335 333 332 331 330 331 331 332 331 331 331 330 328 327 326 326 326 323 323 323 320 321 321 321 321 321
321 322 321 322 322 322 316 322 336 339 340 339 337 335 334 333 332 332 332 330 329 330 331 332 331 330 330 329 329 328 327 326 326 325 324 322 321 322 322 320 320 320 320
321 320 320 319 319 321 324 329 338 340 339 338 337 335 334 332 331 331 331 329 328 328 328 330 331 330 330 329 328 328 326 326 326 325 323 322 321 320 320 322 320 320 320
317 315 314 315 315 316 324 337 339 340 338 336 335 336 332 330 329 329 329 328 327 326 327 328 329 329 328 328 328 327 326 325 325 325 323 322 321 320 320 319 321 321 321
313 312 310 310 311 312 315 328 339 338 337 336 334 333 332 330 330 329 327 327 326 326 326 328 328 328 328 328 327 327 327 326 325 325 324 323 321 321 320 320 319 319 320
309 307 308 307 307 309 312 325 337 337 335 334 333 332 331 331 330 329 328 328 327 327 327 328 328 328 327 326 327 326 327 326 325 324 324 323 321 320 320 320 320 320 320
305 304 304 304 303 305 308 315 335 336 335 334 332 332 332 330 329 328 328 328 328 328 328 326 325 324 324 325 325 326 325 326 324 324 323 323 322 321 321 320 321 321 321
302 302 302 301 301 302 304 309 324 332 332 331 332 331 331 330 329 328 328 329 328 325 324 324 324 320 319 321 322 323 324 325 324 324 324 323 322 321 322 322 321 322 321
299 299 299 299 299 299 300 303 308 321 325 327 330 330 329 329 328 328 327 327 325 324 323 322 321 319 320 319 321 322 323 324 324 324 324 323 322 321 322 321 321 322 320
297 296 297 296 297 297 297 300 302 311 321 319 328 330 327 328 328 327 326 326 324 323 322 321 320 319 318 319 321 322 323 323 323 323 323 323 322 321 321 321 321 320 320
297 295 294 295 295 295 296 297 298 302 316 326 328 326 326 327 327 326 325 325 324 324 323 321 319 319 319 319 320 321 322 322 322 322 323 322 321 321 320 320 320 319 318
295 294 293 293 293 293 294 295 296 299 307 324 324 324 325 325 325 325 326 326 325 324 323 321 320 319 319 318 319 320 320 319 320 322 322 321 321 321 320 320 319 318 317
294 293 293 292 292 292 292 294 295 297 299 304 312 314 322 323 324 324 323 323 324 322 321 320 319 318 318 318 318 319 318 318 318 318 318 318 319 320 319 319 318 316 316
293 292 291 291 291 291 291 292 293 295 295 297 298 302 308 312 313 317 317 316 315 315 317 315 314 312 313 316 317 317 317 316 316 314 314 315 316 315 316 316 316 316 317
291 291 290 290 290 290 290 290 291 292 293 292 293 294 296 297 299 300 304 305 303 304 303 304 305 304 304 307 313 316 315 313 311 309 308 306 305 308 310 312 313 313 313
290 289 289 289 289 289 289 289 289 290 291 291 291 291 291 291 292 293 292 294 295 295 295 294 295 295 293 298 301 308 308 304 301 301 301 302 300 300 303 302 300 297 297
288 288 288 288 288 288 288 288 288 288 288 289 289 290 290 289 288 289 287 287 288 288 289 289 290 290 289 291 293 297 295 293 293 294 294 295 295 294 296 298 291 287 285
288 287 287 287 287 287 287 286 286 286 286 287 287 288 288 288 289 287 286 285 285 285 286 286 286 286 287 289 290 289 288 287 286 287 288 289 288 288 290 290 288 285 284
287 286 286 287 286 286 285 285 284 284 284 285 285 286 287 287 287 287 286 286 285 284 284 284 284 285 285 285 287 288 287 285 285 285 285 286 286 287 287 287 285 284 283
285 285 285 285 285 285 284 284 283 283 283 284 284 284 285 285 286 286 285 284 284 283 283 283 283 283 283 284 286 286 285 284 283 283 283 283 284 285 284 284 283 282 281
284 284 284 284 284 285 285 284 283 282 282 282 282 282 283 284 284 284 283 283 283 282 282 282 282 282 283 283 283 283 283 283 282 281 281 283 283 283 282 283 282 280 280
283 283 283 283 283 284 285 285 284 283 282 281 280 280 280 280 281 281 282 281 281 280 280 281 281 282 283 283 283 282 281 280 279 279 279 279 279 279 279 279 279 278 278
282 282 282 282 282 282 283 284 284 284 282 281 280 279 278 279 279 279 279 279 279 280 279 280 280 281 282 283 283 283 282 281 280 279 278 277 276 275 275 275 275 275 275
281 281 281 280 280 281 282 283 283 283 283 283 281 279 277 277 277 277 278 279 279 279 279 279 280 280 281 282 282 281 280 280 279 278 276 275 274 274 273 273 273 273 273

GFSMW_925_thetae_099.txt.gz
Theta_e
306 307 309 311 311 311 312 312 332 339 341 340 339 338 338 339 339 340 339 339 339 338 336 336 335 334 333 329 329 329 329 328 328 327 326 326 326 326 326 327 327 327 325
307 307 309 309 309 311 312 312 322 338 340 339 339 338 338 337 337 338 339 339 339 338 336 336 335 333 331 328 327 328 327 327 327 326 325 323 321 324 325 326 326 326 324
319 319 318 316 318 315 311 312 320 334 339 339 338 337 336 335 335 336 337 338 337 337 335 332 333 332 333 328 326 329 328 327 327 326 324 323 324 321 322 324 324 324 324
317 315 314 314 315 315 317 318 320 334 338 339 337 336 335 334 334 334 334 334 334 334 332 331 330 332 333 330 327 328 327 326 325 325 325 323 321 323 322 320 322 323 323
314 313 311 311 311 311 313 320 321 333 337 339 338 336 335 334 333 333 332 334 333 333 329 328 330 329 331 332 328 326 326 326 326 325 324 322 321 322 321 323 319 319 321
311 309 309 309 309 309 310 313 327 335 337 338 337 336 335 332 330 330 332 331 330 329 329 329 329 330 329 328 328 326 326 325 326 325 324 323 321 321 321 321 321 320 319
307 307 306 306 305 306 306 309 319 337 338 338 337 335 333 331 331 330 330 328 329 329 328 327 327 328 328 327 329 328 327 326 326 325 324 323 321 321 322 321 321 320 319
304 304 303 303 302 303 305 306 313 337 337 336 335 334 332 332 330 331 329 328 328 327 326 326 327 326 329 329 327 327 327 326 326 325 325 323 322 320 320 320 320 319 319
301 300 301 300 300 301 302 304 309 334 336 335 333 332 330 330 329 329 329 328 327 325 325 325 325 327 328 327 327 326 326 326 325 323 325 323 322 321 320 320 320 319 320
299 298 298 298 298 298 301 302 306 313 331 332 331 329 328 329 329 329 328 327 327 326 326 326 326 327 325 324 324 325 325 325 324 324 324 324 322 320 320 320 320 320 319
298 296 296 295 296 296 298 300 302 307 314 327 329 329 328 327 328 328 328 327 327 327 327 326 324 323 322 322 321 319 320 321 323 324 324 324 323 321 320 320 320 319 320
296 295 294 294 294 294 296 298 299 302 306 319 326 327 323 326 327 326 327 326 326 326 323 322 321 320 321 319 319 319 321 322 322 323 324 324 323 322 321 320 320 321 319
295 294 293 293 293 293 294 295 297 299 302 316 324 325 322 324 326 325 326 326 325 323 322 322 321 320 319 318 318 320 321 321 321 322 323 323 322 321 320 320 320 320 320
294 293 292 292 292 292 292 294 295 297 299 306 321 325 326 325 325 325 325 325 323 322 322 322 321 319 318 319 318 320 320 320 320 321 322 323 322 321 320 319 320 319 318
293 292 291 291 291 291 291 292 293 295 296 298 300 305 316 322 323 324 324 324 323 322 322 321 319 318 317 318 318 318 318 317 317 317 320 321 320 320 319 319 319 319 319
291 291 290 290 290 290 290 290 291 293 293 293 293 295 300 307 311 311 313 316 317 316 318 316 314 314 313 315 318 317 316 316 314 313 312 313 317 319 319 319 318 318 317
290 290 289 290 289 288 289 289 289 290 291 292 292 291 292 292 297 299 302 301 302 304 306 304 305 306 307 310 316 315 314 312 308 306 306 308 306 310 313 314 315 314 315
289 289 288 288 288 287 287 287 287 288 289 290 290 292 292 289 289 291 291 292 293 292 292 293 294 294 294 301 308 310 306 302 300 299 299 299 299 300 304 305 304 300 301
288 287 287 287 286 286 286 286 285 286 286 286 287 289 291 291 288 287 287 287 288 288 287 287 289 289 289 293 297 302 298 295 292 292 293 294 293 293 297 300 293 288 286
286 285 286 286 285 285 284 284 284 284 284 284 284 285 287 287 287 286 287 287 287 285 286 285 286 286 287 289 292 292 290 288 287 287 287 288 288 289 289 289 286 283 282
286 285 285 286 284 284 284 283 282 282 283 284 285 285 285 285 285 284 285 284 285 285 285 284 284 284 285 285 288 289 288 286 285 284 285 285 286 286 287 286 285 282 283
284 284 284 284 285 284 283 282 282 282 283 283 283 283 283 284 284 283 283 283 283 283 283 283 283 283 283 284 283 284 284 284 283 282 282 283 284 284 283 282 281 281 282
283 283 283 283 283 284 284 283 282 282 282 282 281 282 282 282 282 282 282 282 282 282 283 283 283 283 282 282 283 283 283 282 281 280 281 283 283 282 281 281 280 280 279
282 282 282 282 282 282 283 284 282 282 282 280 280 280 281 281 281 281 281 281 280 281 281 282 282 283 283 282 281 281 281 282 282 282 281 281 280 280 279 278 278 278 277
281 281 281 280 280 281 282 283 284 283 281 279 279 279 278 279 280 280 280 280 280 281 281 281 282 283 283 282 282 281 281 280 279 279 279 278 277 276 276 276 276 276 276
279 279 279 279 279 280 281 282 282 283 282 281 279 277 278 277 278 279 280 280 280 280 280 281 281 282 281 281 280 279 279 279 279 277 275 274 274 274 273 273 273 273 273